Back to catalog

DELTA 1 DEB

AlivePO
NORAD 14910·DEBRIS·🇺🇸 United States

Launched Mar 5, 1978 from Vandenberg Space Force Base

Loading…

Next Passes (next 24 hours)

TLE

FreshSource: Space-Track

Epoch: Sep 13, 2026, 21:40 UTC

1 14910U 78026GK  26256.90333463  .00000793  00000-0  34487-3 0  9998
2 14910  99.1214 240.7086 0014258 253.6889 174.5898 14.27080476204277

Track DELTA 1 DEB in real time with AllMySat

Download on the App Store